Content
SEND FEEDBACK

Daily
Averages
Monthly
Summary
United States of America

EARTH CITY, MISSOURI


Home > North America > United States > Missouri
Elevation: 476 feet     Latitude: 38 46N     Longitude: 090 30W

WEATHER
 
SELECT A DAY
Number of Records: 206,556;   Date Range: 1/1/95 - 10/23/14
 
SHARE

PRINT THIS DATA

[ ← Previous Day ]
WEATHER ALMANAC - MAY 8, 2013
[ Next Day → ]
[ °C ]   °F
Weather ElementAverageHighLow
Temperature70.6 °F82 °F (1:51 pm)57.2 °F (6:51 am)
Dewpoint52.4 °F57.9 °F (9:51 pm)46.9 °F (3:51 pm)
Humidity56.1 %82 % (6:51 am)30 % (3:51 pm)
Barometer29.99 in30.04 in (6:51 am)29.96 in (4:51 pm)
Wind Speed3.9 mph20.7 mph (6:36 pm)
Weather ElementAverage
Visibility9.9 mi
Wind DirectionESE (116.3 °)

Weather ElementTotal
Precipitation---
Cooling Degree Days4.6 (Base 65)
Growing Degree Days19.6 (Base 50)
Averaged from 24 records on May 8, 2013
WEATHER CONDITIONS BREAKOUT
WIND DIRECTION BREAKOUT
WEATHER BY HOUR - MAY 8, 2013
[ °C ]   °F
Local TimeTemperatureDewpointHumidityBarometerVisibilityWind DirectionWind SpeedGust SpeedPrecipitationEventsConditions
1:51 AM60.1 °F53.1 °F78 %29.97 in10.0 miCalmClear
2:51 AM60.1 °F52.0 °F75 %29.97 in10.0 miWest (280°)3.5 mphClear
3:51 AM57.9 °F52.0 °F81 %29.98 in10.0 miCalmClear
4:51 AM57.9 °F52.0 °F81 %29.98 in10.0 miCalmClear
5:51 AM57.9 °F52.0 °F81 %30.00 in10.0 miWest (270°)3.5 mphPartly Cloudy
6:51 AM57.2 °F51.8 °F82 %30.04 in10.0 miCalmScattered Clouds
7:51 AM64.9 °F55.0 °F70 %30.03 in10.0 miWest (270°)3.5 mphPartly Cloudy
8:51 AM71.1 °F54.0 °F55 %30.03 in10.0 miWest (270°)3.5 mphMostly Cloudy
9:51 AM75.0 °F55.0 °F50 %30.03 in10.0 miCalmMostly Cloudy
10:51 AM78.1 °F55.0 °F45 %30.04 in10.0 miCalmMostly Cloudy
11:51 AM79.0 °F48.0 °F34 %30.02 in10.0 miVariable3.5 mphMostly Cloudy
12:51 PM81.0 °F48.0 °F31 %30.01 in10.0 miSouth (170°)5.8 mphMostly Cloudy
1:51 PM82.0 °F48.9 °F31 %30.00 in10.0 miCalmMostly Cloudy
2:51 PM81.0 °F48.0 °F31 %29.99 in10.0 miVariable4.6 mphMostly Cloudy
3:51 PM81.0 °F46.9 °F30 %29.97 in10.0 miSouth (180°)4.6 mphMostly Cloudy
4:51 PM81.0 °F48.0 °F31 %29.96 in10.0 miESE (120°)5.8 mphMostly Cloudy
5:51 PM77.0 °F50.0 °F39 %29.96 in10.0 miSE (130°)8.1 mphOvercast
6:36 PM75.2 °F51.8 °F44 %29.99 in10.0 miWest (280°)20.7 mphOvercast
6:51 PM73.0 °F54.0 °F51 %29.99 in8.0 miWNW (300°)10.4 mph0.00 inRainLight Rain
7:51 PM71.1 °F55.0 °F57 %29.99 in10.0 miWest (280°)6.9 mph0.00 inOvercast
8:51 PM70.0 °F55.9 °F61 %29.98 in10.0 miCalmOvercast
9:51 PM69.1 °F57.9 °F68 %29.98 in10.0 miCalmMostly Cloudy
10:51 PM64.9 °F55.9 °F73 %29.97 in10.0 miESE (110°)5.8 mphMostly Cloudy
11:51 PM68.0 °F57.0 °F68 %29.97 in10.0 miSE (130°)3.5 mphMostly Cloudy
Hourly data recorded from KSTL, located miles away from Earth City, Missouri







STORIES FROM OUR PARTNERS